Location: Chiroubles
(46.1812°N, 4.6660°E)
Time: 03:50:42
(UTC+00:00)

SR - Visible Passes

Search period start: 19 May 2021 00:00
Search period end: 29 May 2021 00:00
Orbit: 573 x 881 km, 66.7° (Epoch: 18 May)

Date Brightness Start Highest point End Pass type
(mag) Time Alt. Az. Time Alt. Az. Time Alt. Az.
19 May ? 01:15:18 21° WSW 01:18:43 39° NW 01:24:16 10° NNE visible
19 May ? 02:59:36 10° NW 03:02:31 14° NNW 03:05:25 10° N visible
19 May ? 22:47:04 26° ESE 22:47:04 26° ESE 22:51:44 10° NE visible
20 May ? 00:26:26 38° WSW 00:28:40 64° NW 00:34:34 10° NNE visible
20 May ? 02:07:52 10° WNW 02:11:57 19° NNW 02:16:01 10° NNE visible
20 May ? 21:58:08 13° E 21:58:08 13° E 22:00:26 10° ENE visible
20 May ? 23:37:30 55° S 23:38:49 77° ESE 23:44:45 10° NE visible
21 May ? 01:16:51 11° W 01:21:33 27° NW 01:26:31 10° NNE visible
21 May ? 03:04:14 10° NNW 03:05:47 11° NNW 03:07:18 10° N visible
21 May ? 22:48:30 42° SE 22:49:08 44° ESE 22:54:44 10° NE visible
22 May ? 00:27:52 21° WSW 00:31:20 41° NW 00:36:55 10° NNE visible
22 May ? 02:12:02 10° NW 02:15:05 14° NNW 02:18:07 10° N visible
22 May ? 21:59:26 24° ESE 21:59:40 24° ESE 22:04:18 10° NE visible
22 May ? 23:38:46 35° SW 23:41:19 67° NW 23:47:14 10° NNE visible
23 May ? 01:20:21 10° WNW 01:24:32 19° NNW 01:28:41 10° NNE visible
23 May ? 21:10:16 13° ESE 21:10:21 13° E 21:12:47 10° ENE visible
23 May ? 22:49:36 45° S 22:51:27 73° ESE 22:57:24 10° NE visible
24 May ? 00:29:07 10° W 00:34:10 28° NW 00:39:11 10° NNE visible
24 May ? 02:16:39 10° NNW 02:18:19 11° NNW 02:20:01 10° N visible
24 May ? 22:00:19 35° SSE 22:01:49 41° ESE 22:07:21 10° NE visible
24 May ? 23:39:38 17° WSW 23:43:57 43° NW 23:49:36 10° NNE visible
25 May ? 01:24:29 10° WNW 01:27:39 14° NNW 01:30:48 10° N visible
25 May ? 21:10:52 21° SE 21:12:21 23° ESE 21:16:51 10° ENE visible
25 May ? 22:50:12 23° SW 22:53:57 71° NW 22:59:54 10° NNE visible
26 May ? 00:32:50 10° W 00:37:07 20° NNW 00:41:22 10° NNE visible
26 May ? 20:21:13 10° ESE 20:23:03 12° E 20:25:05 10° E visible
26 May ? 22:00:32 24° SSW 22:04:08 69° ESE 22:10:02 10° NE visible
26 May ? 23:41:39 10° W 23:46:45 29° NW 23:51:51 10° NNE visible
27 May ? 01:29:03 10° NW 01:30:53 11° NNW 01:32:42 10° N visible
27 May ? 21:10:35 17° S 21:14:29 39° ESE 21:19:57 10° NE visible
27 May ? 22:50:56 10° WSW 22:56:35 45° NW 23:02:15 10° NNE visible
28 May ? 00:36:57 10° WNW 00:40:13 15° NNW 00:43:28 10° N visible
28 May ? 20:20:44 10° SSE 20:25:03 22° ESE 20:29:24 10° ENE visible
28 May ? 22:00:42 10° SW 22:06:35 74° NW 22:12:32 10° NNE visible
28 May ? 23:45:20 10° W 23:49:42 21° NW 23:54:02 10° NNE visible
